User: anonymous   Login
Location: NC_16_and_73
(35.4490°N, 81.0150°W)
Time: 13:06:20
(UTC-05:00)
Language:

Cosmos-2242 - Orbit

View from above orbital plane
View from above orbital plane
View from above satellite
View from above satellite

Ground track
Ground track

The orbit data is extracted from the following two-line orbital elements,

1 22626U 93024A   17060.38085785  .00000338  00000-0  34251-4 0  9997
2 22626  82.5238 143.4564 0020578 117.0962 243.2358 14.87614886290127
Epoch (UTC): 01 March 2017 09:08:26
Eccentricity: 0.0020578
inclination: 82.5238°
perigee height: 591 km
apogee height: 620 km
right ascension of ascending node: 143.4564°
argument of perigee: 117.0962°
revolutions per day: 14.87614886
mean anomaly at epoch: 243.2358°
orbit number at epoch: 29012

The dashed part of the orbit path shows where the satellite is in the earth's shadow,  

DLR